SCP
1 1 1 0 0 0 0 0 0 0 0 0 0 0 0 0 0 0 0 0 0 0 0 0 0 0 0 0 0 0 0 0 0 0 0 0 0 0 0 0 0 0 0 0 0 1 1 1 1
1 1 0 0 0 0 0 0 0 0 0 0 0 0 0 0 0 0 0 0 0 0 0 0 0 0 0 0 0 0 0 0 0 0 0 0 0 0 0 0 0 0 0 0 0 0 1 1 1
1 0 0 0 0 0 0 0 0 0 0 0 0 0 0 0 0 0 0 0 0 0 0 0 0 0 0 0 0 0 0 0 0 0 0 0 0 0 0 0 0 0 0 0 0 0 0 0 0
0 0 0 0 0 0 0 0 0 0 0 0 0 0 0 0 0 0 0 0 0 0 0 0 0 0 0 1 1 0 0 0 0 0 0 0 0 0 0 0 0 0 0 0 0 0 0 0 0
0 0 0 0 0 0 0 0 0 0 0 0 0 0 0 0 0 0 1 1 0 0 0 0 1 1 1 1 1 0 0 0 0 0 0 0 0 0 0 0 0 0 0 0 0 0 0 0 0
0 0 0 0 0 0 0 0 0 0 0 0 0 0 0 0 0 0 1 1 1 0 0 0 1 1 1 1 1 1 0 0 0 0 0 0 0 0 0 0 0 0 0 0 0 0 0 0 0
0 0 0 0 0 0 0 0 0 0 0 0 0 0 0 0 0 0 0 0 0 0 0 0 0 0 1 1 1 1 1 1 1 0 0 0 0 0 0 0 0 0 0 0 0 0 0 0 0
0 0 0 0 0 0 0 0 0 0 0 0 0 0 0 0 0 0 0 0 0 0 0 0 0 0 1 1 1 1 1 1 1 1 1 0 0 0 0 0 0 0 0 0 0 0 0 0 0
0 0 0 0 0 0 0 0 0 0 0 0 0 0 0 0 0 0 0 0 0 0 0 0 0 0 0 1 1 1 1 1 1 1 1 1 1 1 1 1 0 0 0 0 0 0 0 0 0
0 0 0 0 0 0 0 0 0 0 0 0 0 0 0 0 0 0 0 0 0 0 0 0 0 0 0 0 0 1 1 1 1 1 1 1 1 1 1 1 1 0 0 0 0 0 0 0 0
0 0 0 0 0 0 0 0 0 0 0 0 0 0 0 0 0 0 0 0 0 0 0 0 0 0 0 0 0 0 1 1 1 0 1 1 1 1 1 1 1 1 1 0 0 0 0 0 0
0 0 0 0 0 0 0 0 0 0 0 0 0 0 0 0 0 0 0 0 0 0 0 0 0 0 0 0 0 0 0 1 1 0 0 1 1 1 1 1 1 1 1 1 1 1 0 0 0
0 0 0 0 0 0 0 0 0 0 0 0 0 0 0 0 0 0 0 0 0 0 0 0 0 0 0 0 0 0 0 1 1 0 0 1 1 1 1 1 1 1 1 1 1 1 1 0 0
0 0 0 0 0 0 0 0 0 0 0 0 0 0 0 0 0 0 0 0 0 0 0 0 0 0 0 0 0 0 0 1 1 1 1 1 1 1 1 1 1 1 1 1 1 1 1 0 0
0 0 0 0 0 0 0 0 0 0 0 0 0 0 0 0 0 0 0 0 0 0 0 0 0 0 0 0 0 0 0 0 0 0 1 0 0 1 1 1 1 1 1 1 1 1 1 0 0
0 0 0 0 0 0 0 0 0 0 0 0 0 0 0 0 0 0 0 0 0 0 0 0 0 0 0 0 0 0 0 0 0 0 0 0 0 1 1 1 1 1 1 1 1 1 1 0 0
0 0 0 0 0 0 0 0 0 0 0 0 0 0 0 0 0 0 0 0 0 0 0 0 0 0 0 0 0 0 0 0 0 0 0 0 0 0 1 1 1 1 1 1 1 1 1 1 0
0 0 0 0 0 0 0 0 0 0 0 0 0 0 0 0 0 0 0 0 0 0 0 0 0 0 0 0 0 0 0 0 0 0 0 0 0 0 1 1 1 1 1 1 1 1 1 1 1
0 0 0 0 0 0 0 0 0 0 0 0 0 0 0 0 0 0 0 0 0 0 0 0 0 0 0 0 0 0 0 0 0 0 0 0 0 0 1 1 1 1 1 1 1 1 1 1 1
0 0 0 0 0 0 0 0 0 0 0 0 0 0 0 0 0 0 0 0 0 0 0 0 0 0 0 0 0 0 0 0 0 0 0 0 0 0 0 1 1 1 1 1 1 1 1 1 1
0 0 0 0 0 0 0 0 0 0 0 0 0 0 0 0 0 0 0 0 0 0 0 0 0 0 0 0 0 0 0 0 0 0 0 0 0 0 0 0 1 1 1 1 1 1 1 1 1
0 0 0 0 0 0 0 0 0 0 0 0 0 0 0 0 0 0 0 0 0 0 0 0 0 0 0 0 0 0 0 0 0 0 0 0 0 0 0 0 0 1 1 1 1 1 1 1 1
0 0 0 0 0 0 0 0 0 0 0 0 0 0 0 0 0 0 0 0 0 0 0 0 0 0 0 0 0 0 0 0 0 0 0 0 0 0 0 0 1 1 1 1 1 1 1 1 1
0 0 0 0 0 0 0 0 0 0 0 0 0 0 0 0 0 0 0 0 0 0 0 0 0 0 0 0 0 0 0 0 0 0 0 0 0 0 0 0 1 1 1 1 1 1 1 1 1
0 0 0 0 0 0 0 0 0 0 0 0 0 0 0 0 0 0 0 0 0 0 0 0 0 0 0 0 0 0 0 0 0 0 0 0 0 0 0 0 0 0 1 1 1 1 1 1 1
0 0 0 0 0 0 0 0 0 0 0 0 0 0 0 0 0 0 0 0 0 0 0 0 0 0 0 0 0 0 0 0 0 0 0 0 0 0 0 0 0 0 0 0 1 1 1 1 1
0 0 0 0 0 0 0 0 0 0 0 0 0 0 0 0 0 0 0 0 0 0 0 0 0 0 0 0 0 0 0 0 0 0 0 0 0 0 0 0 0 0 0 0 0 1 1 1 1
0 0 0 0 0 0 0 0 0 0 0 0 0 0 0 0 0 0 0 0 0 0 0 0 0 0 0 0 0 0 0 0 0 0 0 0 0 0 0 0 0 0 0 0 0 0 0 1 1
0 0 0 0 0 0 0 0 0 0 0 0 0 0 0 0 0 0 0 0 0 0 0 0 0 0 0 0 0 0 0 0 0 0 0 0 0 0 0 0 0 0 0 0 0 0 0 0 0
0 0 0 0 0 0 0 0 0 0 0 0 0 0 0 0 0 0 0 0 0 0 0 0 0 0 0 0 0 0 0 0 0 0 0 0 0 0 0 0 0 0 0 0 0 0 0 0 0
Wind_Speed
8 5 3 2 4 5 4 6 3 4 4 3 4 5 5 4 2 1 1 5 5 6 5 7 9 9 8 8 8 8 8 8 7 7 7 7 7 7 6 5 5 5 4 4 3 3 3 4 4
6 4 2 4 5 4 4 5 5 4 2 1 4 5 6 5 3 2 1 3 5 6 5 5 9 8 8 8 8 8 8 7 7 7 7 7 6 6 6 6 5 5 5 4 4 3 3 3 3
6 2 3 4 4 3 1 3 2 4 7 5 4 5 5 5 5 2 1 5 5 5 4 5 9 9 8 8 8 8 8 8 7 7 7 7 6 6 6 6 5 5 5 4 4 3 3 3 3
4 3 4 6 5 2 2 3 4 4 6 8 4 5 5 6 6 3 2 5 4 2 2 3 9 9 9 9 9 8 8 8 8 8 7 7 7 7 6 6 5 5 5 5 4 3 3 3 2
3 4 6 4 3 3 3 6 6 5 5 7 5 5 4 8 9 7 5 4 3 1 1 1 7 8 8 9 9 9 9 9 9 8 8 8 8 7 7 6 6 5 5 5 4 4 4 3 2
4 4 5 2 2 2 3 5 5 6 5 6 6 4 3 7 10 8 8 6 6 4 4 4 5 6 8 9 9 9 10 10 10 10 9 9 9 8 8 7 7 6 6 5 5 4 4 4 3
4 4 4 3 2 1 2 3 5 5 6 7 5 3 3 7 8 8 9 9 8 7 6 5 6 6 6 7 9 9 10 10 10 10 10 10 10 9 9 8 8 7 7 6 6 5 5 5 4
4 5 4 2 3 1 2 3 3 5 4 5 5 5 4 5 5 7 8 9 8 7 6 5 5 5 5 6 8 9 10 10 10 11 11 11 11 10 10 9 9 9 8 8 7 7 6 6 5
4 6 2 3 4 3 1 3 3 3 4 5 5 4 4 5 5 8 8 8 7 7 5 5 5 5 5 5 6 7 8 8 8 9 11 10 5 5 6 8 10 10 10 9 9 8 7 6 5
5 4 2 2 4 5 3 3 3 4 4 4 5 6 6 6 7 9 8 7 7 6 5 4 5 5 5 5 4 3 3 4 4 4 4 3 3 4 6 7 11 12 11 10 10 9 8 5 1
4 4 3 4 5 6 5 3 3 4 4 3 3 3 5 7 7 7 6 5 5 5 6 6 5 5 4 3 3 2 2 2 3 4 4 3 3 3 4 2 5 6 7 5 5 5 2 2 2
6 4 4 5 4 4 4 4 4 4 3 3 3 3 4 6 6 6 5 5 5 5 6 6 6 5 5 4 3 3 2 2 2 3 4 3 2 3 3 3 3 3 2 3 3 3 3 3 3
5 4 5 7 9 7 7 5 5 4 4 5 6 7 6 6 5 4 4 4 5 6 7 7 6 5 5 4 3 3 3 3 3 3 3 3 3 3 3 3 3 4 3 3 4 4 4 4 4
6 8 7 6 6 4 6 4 4 2 3 6 7 6 6 5 5 5 6 6 6 7 7 7 6 5 5 4 4 3 3 3 3 3 3 3 2 3 3 3 3 4 4 4 4 4 4 4 3
7 7 5 3 3 3 5 5 2 1 4 6 5 5 5 5 5 5 5 5 5 6 7 7 6 6 6 5 5 4 3 3 3 3 3 3 3 3 3 3 3 3 3 4 3 3 3 3 4
5 5 2 2 3 2 3 2 0 2 5 5 4 3 4 3 3 4 4 5 5 6 7 7 8 7 7 6 5 4 4 4 3 3 3 3 3 3 3 3 3 3 3 3 3 3 3 3 3
2 2 3 3 4 3 3 3 2 2 5 4 2 2 2 3 4 4 5 5 5 6 6 7 7 7 7 7 5 5 4 4 3 3 3 3 4 3 3 3 3 3 2 3 3 3 3 4 4
4 3 2 4 3 4 3 2 2 2 4 3 2 1 2 3 4 5 5 5 5 5 6 6 7 7 7 6 5 4 4 3 3 3 3 4 3 3 3 3 3 3 2 3 3 3 4 3 3
4 4 2 1 2 3 3 3 2 2 2 2 1 1 2 4 5 5 5 5 5 6 6 7 7 7 6 5 5 5 5 4 4 3 4 4 4 4 3 3 3 3 3 4 4 3 4 3 3
5 4 3 2 3 3 2 1 1 2 2 3 3 2 3 4 5 5 5 5 5 6 6 6 7 7 7 5 4 3 4 4 3 3 4 4 5 4 4 3 3 3 3 4 4 4 3 3 4
3 3 3 3 3 4 3 3 3 2 1 2 2 2 3 4 5 6 6 6 6 6 6 6 7 7 7 6 4 5 3 3 3 4 4 4 5 4 4 4 3 4 4 4 5 5 5 4 4
1 0 2 4 3 0 1 4 5 4 3 3 3 3 4 5 5 5 6 6 6 6 6 6 6 6 6 6 5 6 5 4 4 4 4 6 5 4 4 4 4 4 4 5 5 6 5 5 4
2 3 3 3 4 2 1 1 7 1 4 6 6 5 5 5 5 6 6 6 6 5 5 5 6 6 6 6 6 5 5 4 4 5 6 5 5 4 4 4 3 3 4 5 6 5 6 5 5
4 6 6 5 5 1 2 3 7 4 6 5 5 5 6 6 5 6 6 5 5 5 5 5 6 6 6 6 6 6 6 7 7 7 7 6 4 4 5 4 3 3 4 5 5 6 7 7 7
6 6 5 5 4 4 2 2 8 5 6 6 6 6 6 5 5 6 6 6 6 6 5 5 6 6 7 7 6 6 6 6 6 6 6 6 5 4 6 5 4 4 4 4 5 5 6 7 8
3 6 6 3 3 5 3 5 7 3 3 3 4 4 5 6 6 6 6 6 6 6 5 5 5 5 6 6 6 6 6 4 4 5 5 5 4 5 6 5 5 5 5 4 4 4 5 5 7
3 3 4 6 1 2 5 7 7 1 1 2 4 4 6 7 7 6 6 5 5 5 4 4 5 5 5 6 6 6 6 5 5 6 5 4 5 5 7 6 6 6 5 5 4 3 4 4 5
3 7 5 4 2 3 7 5 5 5 7 6 6 7 7 7 6 6 6 5 5 4 4 3 3 4 4 4 4 4 5 5 5 5 6 6 6 6 7 7 7 6 6 5 4 3 2 2 3
3 4 5 4 4 4 4 8 7 6 6 8 9 8 7 7 7 6 6 5 5 4 3 3 4 3 4 4 4 5 5 5 5 5 6 6 6 7 7 7 7 7 7 6 5 4 3 2 2
2 4 6 4 2 4 3 10 6 6 6 6 8 7 6 6 6 6 6 5 5 4 4 4 3 3 3 3 3 4 4 5 5 5 6 6 6 6 7 7 7 7 7 6 6 5 4 3 3
Wind_Direction
152 133 116 80 53 48 24 341 348 15 48 24 39 61 73 57 45 349 344 138 139 144 163 173 171 173 174 175 174 174 173 170 169 168 167 166 165 163 162 163 163 164 164 161 159 158 150 137 122
135 133 100 64 72 53 4 349 20 24 70 86 47 52 58 46 35 44 120 156 147 151 158 172 179 180 182 182 181 181 181 179 178 179 178 178 177 175 175 174 175 174 174 172 172 170 167 156 129
143 131 92 71 73 95 25 349 19 35 39 37 51 46 50 22 356 323 225 152 147 155 158 183 186 187 190 191 191 190 190 189 188 188 188 188 187 187 187 186 185 184 183 183 183 188 188 174 147
124 59 54 64 63 37 1 338 331 1 32 24 46 54 56 20 344 321 105 128 139 138 140 203 198 198 199 201 201 202 201 200 200 200 200 199 199 198 197 198 197 194 194 196 196 204 204 197 175
76 80 62 56 37 27 13 5 17 28 41 18 34 59 34 2 4 32 57 80 79 85 102 262 220 214 214 214 215 214 213 212 213 213 211 210 210 209 207 208 207 206 207 207 208 215 218 218 205
65 69 75 71 34 31 20 8 18 25 26 19 22 64 47 3 17 26 36 51 48 34 15 345 284 250 236 230 229 229 227 224 224 224 223 220 218 216 215 216 215 215 218 217 217 222 228 230 227
107 91 109 131 115 64 50 23 31 7 29 14 358 60 34 13 17 30 42 48 52 44 28 3 349 334 305 279 258 246 242 238 236 234 231 229 227 225 222 222 222 222 224 224 225 227 233 238 238
124 99 98 135 145 133 14 61 51 26 26 9 24 51 16 359 18 43 49 48 48 43 31 15 2 359 347 327 305 287 269 258 252 246 240 236 234 232 230 227 228 229 229 229 230 231 235 241 245
88 79 138 181 162 144 65 93 80 44 52 44 46 56 34 15 29 45 44 38 35 30 14 10 3 357 344 324 326 325 310 292 275 259 251 245 237 235 238 235 231 233 235 235 234 235 237 241 250
81 114 176 147 142 132 106 85 104 74 50 48 51 44 41 39 43 47 41 31 21 9 357 360 352 349 344 337 335 324 318 312 299 281 265 250 231 226 233 236 240 238 238 239 239 238 238 238 210
82 120 120 94 107 119 112 87 58 107 58 48 70 46 38 45 42 41 32 20 5 350 351 347 342 337 335 330 328 323 318 314 309 295 288 271 248 230 232 223 244 248 246 238 241 243 224 193 186
87 62 93 115 105 95 106 109 76 66 96 92 96 86 61 51 41 31 20 4 352 351 345 340 340 339 337 334 323 317 313 304 293 287 287 275 262 243 228 221 221 223 225 219 211 205 204 204 206
87 92 62 84 85 85 86 82 94 68 82 86 80 67 59 53 39 24 15 6 0 354 343 335 333 335 332 332 321 326 312 303 297 291 283 272 262 256 244 235 226 224 218 217 211 202 202 209 214
98 94 93 81 80 86 98 81 84 90 94 80 70 59 50 45 33 20 10 2 355 347 340 331 332 337 335 329 320 310 307 300 297 294 285 274 259 253 243 238 233 229 221 217 209 201 198 208 210
97 88 73 73 83 119 105 56 47 126 97 78 62 54 48 39 33 20 358 350 342 336 334 335 336 347 336 326 319 317 306 306 301 297 296 288 273 257 242 234 236 234 226 217 203 201 195 204 212
82 94 130 202 151 146 122 162 209 116 105 87 66 49 43 22 10 356 348 342 340 338 338 338 345 343 336 329 318 309 307 305 297 296 296 291 282 269 253 239 238 235 226 212 204 199 205 215 212
88 155 196 184 176 134 142 181 187 117 117 107 84 50 28 360 348 341 338 337 337 337 334 335 337 338 334 327 319 310 306 302 296 297 294 290 287 274 252 246 244 232 221 211 216 203 198 216 216
197 195 187 189 170 117 133 161 135 112 125 127 108 35 352 340 322 321 328 332 333 333 333 333 335 336 333 328 325 321 319 312 304 299 296 297 291 282 259 247 245 232 221 217 209 206 200 205 206
147 148 151 141 110 113 147 163 182 130 126 144 173 299 321 312 305 316 323 329 333 336 340 338 339 337 342 340 339 332 327 320 317 311 307 304 297 289 267 257 242 227 222 221 211 199 205 208 169
97 117 121 79 54 93 114 247 245 201 200 204 213 250 286 305 314 317 322 328 331 328 331 334 337 335 340 337 324 306 301 300 296 304 312 306 300 292 280 252 243 228 225 225 214 197 189 199 174
69 142 161 141 71 61 83 320 249 244 201 206 226 246 271 281 294 307 315 316 323 327 329 331 329 331 336 338 333 330 330 320 330 332 325 313 306 294 277 265 249 233 220 225 219 205 199 201 194
120 27 129 127 112 327 131 290 279 235 243 241 244 259 271 280 289 297 305 311 315 316 321 325 328 330 337 344 349 350 344 334 319 317 312 313 310 303 290 274 255 243 232 230 226 217 211 201 200
147 55 77 104 119 61 30 216 289 220 250 248 241 247 261 272 281 289 294 299 306 314 322 325 331 334 340 348 350 348 342 325 317 323 326 329 326 320 313 296 281 262 247 241 234 223 213 208 203
108 70 55 50 71 351 229 179 280 233 225 234 224 235 254 269 283 291 297 305 309 316 325 332 337 333 340 346 350 353 345 340 341 342 341 336 331 331 337 320 302 285 267 254 244 232 220 216 209
67 79 35 6 10 266 260 206 253 255 226 215 211 227 248 264 276 287 299 307 309 315 323 330 336 330 335 343 347 347 344 343 344 339 340 339 338 336 338 337 323 307 287 270 255 242 232 219 213
78 120 144 193 240 290 317 248 257 270 241 214 211 226 251 267 272 277 285 291 295 302 316 324 327 323 331 339 338 342 346 346 340 339 339 340 335 328 333 334 333 325 316 301 275 252 239 227 221
111 98 149 128 165 295 293 289 304 231 250 227 232 244 256 264 274 278 286 290 292 296 302 308 310 315 324 332 335 340 347 349 345 343 344 342 339 338 343 342 341 338 334 327 309 278 253 235 222
102 139 95 102 123 301 303 289 268 264 251 243 238 241 252 266 277 284 285 284 289 283 284 299 297 300 310 326 331 337 339 342 342 346 350 347 343 344 345 348 343 340 339 335 326 306 293 255 231
115 87 98 103 141 154 294 280 232 233 239 230 232 232 240 255 268 278 284 286 288 286 279 286 298 307 315 324 328 336 337 340 345 349 345 342 341 345 347 344 342 342 342 339 337 323 326 304 266
160 153 143 142 196 163 194 269 264 247 252 231 234 235 240 250 263 273 283 291 295 292 282 277 285 292 298 310 324 331 334 341 347 346 342 343 343 343 343 343 345 345 343 341 342 336 332 323 308